Regional Weather Roundup
Issued by NWS Newport/Morehead, NC

Current Version | Previous Version | Text Only | Print | Product List | Glossary Off
Versions: 1 2 3 4 5 6 7 8 9 10 11 12 13 14 15 16 17 18 19 20 21 22 23 24 25 26 27 28 29 30 31 32 33 34 35 36 37 38 39 40 41 42 43 44 45 46 47 48 49 50

000
ASUS42 KMHX 190924
RWRMHX
WEATHER ROUNDUP FOR EASTERN NORTH CAROLINA
NATIONAL WEATHER SERVICE NEWPORT/MOREHEAD CITY NC
500 AM EDT SUN APR 19 2015

NOTE: "FAIR" INDICATES FEW OR NO CLOUDS BELOW 12,000 FEET
WITH NO SIGNIFICANT WEATHER AND/OR OBSTRUCTIONS TO VISIBILITY

NCZ015>017-031-032-045>047-102-103-191000-
NORTH COAST

CITY           SKY/WX    TMP DP  RH WIND       PRES   REMARKS
EDENTON        MOCLDY    57  56  97 CALM      30.00S FOG
ELIZABETH CITY PTCLDY    55  55 100 CALM      30.01R
KITTY HAWK     FOG       55  55 100 CALM      30.00R VSB 1/2
MANTEO         MOCLDY    58  58  99 NE5       30.01R

$$

NCZ045>047-081-094-103-104-191000-
CENTRAL COAST

CITY           SKY/WX    TMP DP  RH WIND       PRES   REMARKS
FRISCO         MOCLDY    59  59 100 NE6       29.99F
SWANQUARTER      N/A     63 N/A N/A E3        29.94F

$$

NCZ095-097-098-100-101-191000-
SOUTHERN COAST

CITY           SKY/WX    TMP DP  RH WIND       PRES   REMARKS
BEAUFORT       CLOUDY    66  66 100 E5        29.99R
CEDAR ISLAND     N/A     66 N/A N/A E7        30.03S
JACKSONVILLE   CLOUDY    66  64  93 E6        29.97F
PINEY ISLAND   PTSUNNY  N/A N/A N/A E7        29.99R
WILMINGTON     CLOUDY    65  61  87 CALM      29.96F


$$

NCZ011>013-027>030-043-044-078>080-089-090>093-098-191000-
COASTAL PLAIN

CITY           SKY/WX    TMP DP  RH WIND       PRES   REMARKS
AHOSKIE          N/A     58  58  98 CALM      30.01S FOG
CLINTON        CLOUDY    65  65 100 CALM      29.97S
ELIZABETHTOWN  CLOUDY    64  64 100 CALM      29.96S FOG
GOLDSBORO      CLOUDY    64  63  94 NE3       29.96F
GREENVILLE     FOG       64  64 100 CALM      30.00F VSB 1/2
HAVELOCK       CLOUDY    66  64  93 E3        30.00S
KENANSVILLE    CLOUDY    63  62  96 CALM      29.99R
KINSTON        CLOUDY    65  64  99 NE3       29.99F FOG
NEW BERN       CLOUDY    66  64  93 E3        29.99F
RICHLANDS      CLOUDY    63  61  94 CALM      29.98S
ROCKY MOUNT    CLOUDY    65  64  97 NE6       30.00S
WASHINGTON       N/A     64  64  99 E5        30.00S FOG
WHITEVILLE     MOCLDY    63  62  96 CALM      29.96R

$$

AMZ130-135-150-152-154-156-158-170-250-252-270-ANZ085-086-088-633-658-670-191000-
MARINE OBSERVATIONS

STATION/POSITION TIME  TEMP    WIND        PRES    WAVE   SWELL
                       AIR SEA DIR/SP/G            HT/PER HT/PER
                 (UTC) (F)     (DEG/KT/KT) (MB)    (FT/S) (FT/S)
CHESAPEAKE LIGHT 0900   55     300/  3/  3 1017.3
64 E VA BEACH    0850   57 55   10/  6/  8 1015.5    3/13   3/13
DUCK             0900   53 57   40/  1/  2 1015.3
2 E DUCK         0811      55                N/A     3/13   2/13
10 NE DUCK       NOT AVBL
OREGON INLET     0900   56 62   40/  3/  5 1015.9
HATTERAS CG      0900   64 66   50/  5/  7 1015.3
DIAMOND BUOY     0850   70 76   20/ 10/ 14 1015.2    4/13   3/13
CAPE LOOKOUT     0900   67     100/  4/  5 1015.4
BEAUFORT LAB     0900   66 65  140/  4/  6 1014.7
27 SE WRIGHTSVLE 0900   68 72  140/  8/ 10   N/A
5 SE WRIGHTSVLE  0900   66 64   80/  8/ 10 1014.5
225 S CAPE HAT   0850   72 75   30/ 10/ 12 1014.9    4/14   3/14
41 SE CHARLESTON 0850   72 75   40/  8/  8 1013.1    3/ 8   3/ 8

$$


USA.gov is the U.S. government's official web portal to all federal, state and local government web resources and services.